Time,TemperatureF,DewpointF,PressureIn,WindDirection,WindDirectionDegrees,WindSpeedMPH,WindSpeedGustMPH,Humidity,HourlyPrecipIn,Conditions,Clouds,dailyrainin,SoftwareType,DateUTC
2013-09-21 00:04:00,52.8,25.9,24.83,WSW,248,8.0,-999.0,35,-99.99,,,-99.99,dwt +perl,2013-09-21 07:04:00,
2013-09-21 00:09:00,53.0,31.7,24.83,WSW,247,11.0,-999.0,44,-99.99,,,-99.99,dwt +perl,2013-09-21 07:09:00,
2013-09-21 00:14:00,52.8,32.0,24.83,WSW,241,11.0,-999.0,45,-99.99,,,-99.99,dwt +perl,2013-09-21 07:14:00,
2013-09-21 00:19:00,52.6,34.5,24.83,West,268,8.0,-999.0,50,-99.99,,,-99.99,dwt +perl,2013-09-21 07:19:00,
2013-09-21 00:24:00,52.5,34.9,24.83,WSW,247,8.0,-999.0,51,-99.99,,,-99.99,dwt +perl,2013-09-21 07:24:00,
2013-09-21 00:29:00,52.2,36.1,24.82,WSW,244,10.0,-999.0,54,-99.99,,,-99.99,dwt +perl,2013-09-21 07:29:00,
2013-09-21 00:34:00,52.0,36.3,24.83,WSW,251,14.0,-999.0,55,-99.99,,,-99.99,dwt +perl,2013-09-21 07:34:00,
2013-09-21 00:39:00,51.9,39.3,24.83,SW,236,14.0,-999.0,62,-99.99,,,-99.99,dwt +perl,2013-09-21 07:39:00,
2013-09-21 00:44:00,51.9,40.9,24.83,SW,235,16.0,-999.0,66,-99.99,,,-99.99,dwt +perl,2013-09-21 07:44:00,
2013-09-21 00:49:00,52.0,43.6,24.82,SW,233,14.0,-999.0,73,-99.99,,,-99.99,dwt +perl,2013-09-21 07:49:00,
2013-09-21 00:54:00,52.0,42.1,24.82,WSW,243,13.0,-999.0,69,-99.99,,,-99.99,dwt +perl,2013-09-21 07:54:00,
2013-09-21 00:59:00,51.9,43.5,24.82,WSW,250,10.0,-999.0,73,-99.99,,,-99.99,dwt +perl,2013-09-21 07:59:00,
2013-09-21 01:04:00,51.7,44.0,24.82,SSW,203,12.0,-999.0,75,-99.99,,,-99.99,dwt +perl,2013-09-21 08:04:00,
2013-09-21 01:09:00,51.7,44.4,24.82,SW,233,10.0,-999.0,76,-99.99,,,-99.99,dwt +perl,2013-09-21 08:09:00,
2013-09-21 01:14:00,51.5,44.5,24.82,SW,235,11.0,-999.0,77,-99.99,,,-99.99,dwt +perl,2013-09-21 08:14:00,
2013-09-21 01:19:00,51.7,45.4,24.82,WSW,237,12.0,-999.0,79,-99.99,,,-99.99,dwt +perl,2013-09-21 08:19:00,
2013-09-21 01:24:00,51.6,45.6,24.82,SW,235,12.0,-999.0,80,-99.99,,,-99.99,dwt +perl,2013-09-21 08:24:00,
2013-09-21 01:29:00,51.5,45.9,24.82,SW,217,10.0,-999.0,81,-99.99,,,-99.99,dwt +perl,2013-09-21 08:29:00,
2013-09-21 01:34:00,51.4,46.1,24.82,WSW,239,9.0,-999.0,82,-99.99,,,-99.99,dwt +perl,2013-09-21 08:34:00,
2013-09-21 01:39:00,51.5,46.5,24.82,SW,227,9.0,-999.0,83,-99.99,,,-99.99,dwt +perl,2013-09-21 08:39:00,
2013-09-21 01:44:00,51.5,46.5,24.82,SW,228,8.0,-999.0,83,-99.99,,,-99.99,dwt +perl,2013-09-21 08:44:00,
2013-09-21 01:49:00,51.5,46.5,24.82,SW,234,7.0,-999.0,83,-99.99,,,-99.99,dwt +perl,2013-09-21 08:49:00,
2013-09-21 01:54:00,51.5,46.5,24.82,WSW,241,8.0,-999.0,83,-99.99,,,-99.99,dwt +perl,2013-09-21 08:54:00,
2013-09-21 01:59:00,51.5,46.5,24.82,WSW,241,4.0,-999.0,83,-99.99,,,-99.99,dwt +perl,2013-09-21 08:59:00,
2013-09-21 02:14:00,51.5,46.8,24.82,SW,222,5.0,-999.0,84,-99.99,,,-99.99,dwt +perl,2013-09-21 09:14:00,
2013-09-21 02:19:00,51.5,46.8,24.82,SW,224,5.0,-999.0,84,-99.99,,,-99.99,dwt +perl,2013-09-21 09:19:00,
2013-09-21 02:24:00,50.9,46.9,24.82,SW,233,9.0,-999.0,86,-99.99,,,-99.99,dwt +perl,2013-09-21 09:24:00,
2013-09-21 02:29:00,50.7,47.0,24.82,SW,227,10.0,-999.0,87,-99.99,,,-99.99,dwt +perl,2013-09-21 09:29:00,
2013-09-21 02:34:00,50.4,46.7,24.82,SW,231,9.0,-999.0,87,-99.99,,,-99.99,dwt +perl,2013-09-21 09:34:00,
2013-09-21 02:39:00,50.1,46.4,24.81,SSW,197,9.0,-999.0,87,-99.99,,,-99.99,dwt +perl,2013-09-21 09:39:00,
2013-09-21 02:44:00,50.2,46.8,24.81,SSW,199,7.0,-999.0,88,-99.99,,,-99.99,dwt +perl,2013-09-21 09:44:00,
2013-09-21 02:49:00,50.5,46.8,24.81,SW,218,11.0,-999.0,87,-99.99,,,-99.99,dwt +perl,2013-09-21 09:49:00,
2013-09-21 02:54:00,50.3,46.9,24.81,SW,228,9.0,-999.0,88,-99.99,,,-99.99,dwt +perl,2013-09-21 09:54:00,
2013-09-21 02:59:00,50.6,47.5,24.81,SSE,157,3.0,-999.0,89,-99.99,,,-99.99,dwt +perl,2013-09-21 09:59:00,
2013-09-21 03:04:00,50.7,47.9,24.81,SSW,210,9.0,-999.0,90,-99.99,,,-99.99,dwt +perl,2013-09-21 10:04:00,
2013-09-21 03:09:00,50.5,47.7,24.81,SW,218,9.0,-999.0,90,-99.99,,,-99.99,dwt +perl,2013-09-21 10:09:00,
2013-09-21 03:19:00,49.9,47.7,24.80,SW,216,15.0,-999.0,92,-99.99,,,-99.99,dwt +perl,2013-09-21 10:19:00,
2013-09-21 03:24:00,50.0,47.5,24.80,SW,216,14.0,-999.0,91,-99.99,,,-99.99,dwt +perl,2013-09-21 10:24:00,
2013-09-21 03:34:00,49.8,48.1,24.80,South,189,10.0,-999.0,94,-99.99,,,-99.99,dwt +perl,2013-09-21 10:34:00,
2013-09-21 03:39:00,49.7,47.8,24.80,WSW,237,11.0,-999.0,93,-99.99,,,-99.99,dwt +perl,2013-09-21 10:39:00,
2013-09-21 03:49:00,50.0,48.6,24.80,WSW,237,16.0,-999.0,95,-99.99,,,-99.99,dwt +perl,2013-09-21 10:49:00,
2013-09-21 03:54:00,49.9,48.2,24.80,SSW,194,11.0,-999.0,94,-99.99,,,-99.99,dwt +perl,2013-09-21 10:54:00,
2013-09-21 03:59:00,50.1,48.7,24.80,SW,225,12.0,-999.0,95,-99.99,,,-99.99,dwt +perl,2013-09-21 10:59:00,
2013-09-21 04:04:00,50.1,48.7,24.80,SW,235,15.0,-999.0,95,-99.99,,,-99.99,dwt +perl,2013-09-21 11:04:00,
2013-09-21 04:14:00,50.2,48.8,24.80,WSW,243,12.0,-999.0,95,-99.99,,,-99.99,dwt +perl,2013-09-21 11:14:00,
2013-09-21 04:19:00,50.1,48.7,24.80,SW,216,7.0,-999.0,95,-99.99,,,-99.99,dwt +perl,2013-09-21 11:19:00,
2013-09-21 04:24:00,50.2,48.8,24.81,SW,236,8.0,-999.0,95,-99.99,,,-99.99,dwt +perl,2013-09-21 11:24:00,
2013-09-21 04:29:00,50.2,48.8,24.81,SW,222,10.0,-999.0,95,-99.99,,,-99.99,dwt +perl,2013-09-21 11:29:00,
2013-09-21 04:39:00,50.2,48.8,24.81,WSW,238,12.0,-999.0,95,-99.99,,,-99.99,dwt +perl,2013-09-21 11:39:00,
2013-09-21 04:44:00,50.1,48.7,24.81,SSW,213,12.0,-999.0,95,-99.99,,,-99.99,dwt +perl,2013-09-21 11:44:00,
2013-09-21 04:49:00,50.0,48.6,24.80,SW,226,11.0,-999.0,95,-99.99,,,-99.99,dwt +perl,2013-09-21 11:49:00,
2013-09-21 04:54:00,49.9,48.8,24.80,SSW,212,9.0,-999.0,96,-99.99,,,-99.99,dwt +perl,2013-09-21 11:54:00,
2013-09-21 04:59:00,49.8,48.7,24.80,SW,231,17.0,-999.0,96,-99.99,,,-99.99,dwt +perl,2013-09-21 11:59:00,
2013-09-21 05:04:00,49.8,48.7,24.80,WSW,242,10.0,-999.0,96,-99.99,,,-99.99,dwt +perl,2013-09-21 12:04:00,
2013-09-21 05:09:00,49.8,48.7,24.80,WSW,243,13.0,-999.0,96,-99.99,,,-99.99,dwt +perl,2013-09-21 12:09:00,
2013-09-21 05:14:00,49.7,48.6,24.80,SW,222,7.0,-999.0,96,-99.99,,,-99.99,dwt +perl,2013-09-21 12:14:00,
2013-09-21 05:19:00,49.6,48.5,24.80,SSW,212,5.0,-999.0,96,-99.99,,,-99.99,dwt +perl,2013-09-21 12:19:00,
2013-09-21 05:34:00,49.7,48.6,24.80,WSW,237,1.0,-999.0,96,-99.99,,,-99.99,dwt +perl,2013-09-21 12:34:00,
2013-09-21 05:39:00,49.7,48.6,24.80,SW,226,18.0,-999.0,96,-99.99,,,-99.99,dwt +perl,2013-09-21 12:39:00,
2013-09-21 05:44:00,49.6,48.5,24.80,SW,228,12.0,-999.0,96,-99.99,,,-99.99,dwt +perl,2013-09-21 12:44:00,
2013-09-21 05:49:00,49.7,48.6,24.80,SW,224,3.0,-999.0,96,-99.99,,,-99.99,dwt +perl,2013-09-21 12:49:00,
2013-09-21 05:54:00,49.7,48.6,24.80,NW,311,6.0,-999.0,96,-99.99,,,-99.99,dwt +perl,2013-09-21 12:54:00,
2013-09-21 05:59:00,49.6,48.5,24.80,WSW,253,14.0,-999.0,96,-99.99,,,-99.99,dwt +perl,2013-09-21 12:59:00,
2013-09-21 06:09:00,49.4,48.3,24.80,SW,233,15.0,-999.0,96,-99.99,,,-99.99,dwt +perl,2013-09-21 13:09:00,
2013-09-21 06:14:00,49.4,48.3,24.80,SW,235,8.0,-999.0,96,-99.99,,,-99.99,dwt +perl,2013-09-21 13:14:00,
2013-09-21 06:19:00,49.5,48.7,24.81,WSW,242,6.0,-999.0,97,-99.99,,,-99.99,dwt +perl,2013-09-21 13:19:00,
2013-09-21 06:24:00,49.5,48.7,24.81,WSW,239,6.0,-999.0,97,-99.99,,,-99.99,dwt +perl,2013-09-21 13:24:00,
2013-09-21 06:34:00,49.6,48.8,24.81,SW,224,9.0,-999.0,97,-99.99,,,-99.99,dwt +perl,2013-09-21 13:34:00,
2013-09-21 06:39:00,49.5,48.7,24.81,WSW,245,13.0,-999.0,97,-99.99,,,-99.99,dwt +perl,2013-09-21 13:39:00,
2013-09-21 06:54:00,49.5,48.7,24.81,SW,231,3.0,-999.0,97,-99.99,,,-99.99,dwt +perl,2013-09-21 13:54:00,
2013-09-21 06:59:00,49.5,48.7,24.81,West,264,0.0,-999.0,97,-99.99,,,-99.99,dwt +perl,2013-09-21 13:59:00,
2013-09-21 07:04:00,49.5,48.7,24.81,West,262,5.0,-999.0,97,-99.99,,,-99.99,dwt +perl,2013-09-21 14:04:00,
2013-09-21 07:09:00,49.5,48.7,24.81,SW,219,8.0,-999.0,97,-99.99,,,-99.99,dwt +perl,2013-09-21 14:09:00,
2013-09-21 07:14:00,49.5,48.7,24.81,SW,229,6.0,-999.0,97,-99.99,,,-99.99,dwt +perl,2013-09-21 14:14:00,
2013-09-21 07:19:00,49.4,48.6,24.81,WSW,241,7.0,-999.0,97,-99.99,,,-99.99,dwt +perl,2013-09-21 14:19:00,
2013-09-21 07:24:00,48.9,48.1,24.81,SSW,207,5.0,-999.0,97,-99.99,,,-99.99,dwt +perl,2013-09-21 14:24:00,
2013-09-21 07:29:00,49.2,48.4,24.81,SW,217,13.0,-999.0,97,-99.99,,,-99.99,dwt +perl,2013-09-21 14:29:00,
2013-09-21 07:44:00,48.8,48.0,24.81,WSW,239,9.0,-999.0,97,-99.99,,,-99.99,dwt +perl,2013-09-21 14:44:00,
2013-09-21 07:49:00,48.7,47.9,24.81,SSW,197,13.0,-999.0,97,-99.99,,,-99.99,dwt +perl,2013-09-21 14:49:00,
2013-09-21 07:54:00,48.7,47.9,24.81,SW,222,10.0,-999.0,97,-99.99,,,-99.99,dwt +perl,2013-09-21 14:54:00,
2013-09-21 07:59:00,48.4,47.6,24.81,SSE,162,19.0,-999.0,97,-99.99,,,-99.99,dwt +perl,2013-09-21 14:59:00,
2013-09-21 08:04:00,48.5,47.7,24.82,SW,233,13.0,-999.0,97,-99.99,,,-99.99,dwt +perl,2013-09-21 15:04:00,
2013-09-21 08:09:00,48.3,47.5,24.81,WSW,239,12.0,-999.0,97,-99.99,,,-99.99,dwt +perl,2013-09-21 15:09:00,
2013-09-21 08:14:00,48.1,47.3,24.81,WSW,238,19.0,-999.0,97,-99.99,,,-99.99,dwt +perl,2013-09-21 15:14:00,
2013-09-21 08:19:00,48.1,47.3,24.81,WSW,248,13.0,-999.0,97,-99.99,,,-99.99,dwt +perl,2013-09-21 15:19:00,
2013-09-21 08:24:00,48.0,47.2,24.82,SW,235,15.0,-999.0,97,-99.99,,,-99.99,dwt +perl,2013-09-21 15:24:00,
2013-09-21 08:29:00,48.1,47.3,24.82,SW,225,15.0,-999.0,97,-99.99,,,-99.99,dwt +perl,2013-09-21 15:29:00,
2013-09-21 08:34:00,48.0,47.2,24.82,WSW,239,12.0,-999.0,97,-99.99,,,-99.99,dwt +perl,2013-09-21 15:34:00,
2013-09-21 08:39:00,48.2,47.4,24.82,SSW,202,6.0,-999.0,97,-99.99,,,-99.99,dwt +perl,2013-09-21 15:39:00,
2013-09-21 08:54:00,47.8,47.0,24.83,SW,232,12.0,-999.0,97,-99.99,,,-99.99,dwt +perl,2013-09-21 15:54:00,
2013-09-21 08:59:00,47.6,46.8,24.82,South,187,12.0,-999.0,97,-99.99,,,-99.99,dwt +perl,2013-09-21 15:59:00,
2013-09-21 09:04:00,47.7,46.9,24.83,WSW,258,6.0,-999.0,97,-99.99,,,-99.99,dwt +perl,2013-09-21 16:04:00,
2013-09-21 09:14:00,47.5,46.7,24.83,West,268,9.0,-999.0,97,-99.99,,,-99.99,dwt +perl,2013-09-21 16:14:00,
2013-09-21 09:19:00,47.6,46.8,24.83,WSW,243,17.0,-999.0,97,-99.99,,,-99.99,dwt +perl,2013-09-21 16:19:00,
2013-09-21 09:24:00,47.6,46.8,24.84,SSW,213,11.0,-999.0,97,-99.99,,,-99.99,dwt +perl,2013-09-21 16:24:00,
2013-09-21 09:29:00,47.4,46.6,24.83,SW,214,10.0,-999.0,97,-99.99,,,-99.99,dwt +perl,2013-09-21 16:29:00,
2013-09-21 09:39:00,47.3,46.5,24.84,WSW,246,14.0,-999.0,97,-99.99,,,-99.99,dwt +perl,2013-09-21 16:39:00,
2013-09-21 09:44:00,47.5,46.7,24.84,SW,236,8.0,-999.0,97,-99.99,,,-99.99,dwt +perl,2013-09-21 16:44:00,
2013-09-21 09:49:00,47.8,47.0,24.84,SSW,201,9.0,-999.0,97,-99.99,,,-99.99,dwt +perl,2013-09-21 16:49:00,
2013-09-21 09:54:00,47.7,46.9,24.84,SW,220,11.0,-999.0,97,-99.99,,,-99.99,dwt +perl,2013-09-21 16:54:00,
2013-09-21 09:59:00,47.6,46.8,24.84,WSW,241,4.0,-999.0,97,-99.99,,,-99.99,dwt +perl,2013-09-21 16:59:00,
2013-09-21 10:04:00,48.0,47.2,24.85,SW,233,8.0,-999.0,97,-99.99,,,-99.99,dwt +perl,2013-09-21 17:04:00,
2013-09-21 10:09:00,48.2,47.4,24.84,WSW,240,10.0,-999.0,97,-99.99,,,-99.99,dwt +perl,2013-09-21 17:09:00,
2013-09-21 10:14:00,47.9,47.1,24.84,SW,229,8.0,-999.0,97,-99.99,,,-99.99,dwt +perl,2013-09-21 17:14:00,
2013-09-21 10:19:00,47.4,46.6,24.85,WSW,239,9.0,-999.0,97,-99.99,,,-99.99,dwt +perl,2013-09-21 17:19:00,
2013-09-21 10:24:00,46.8,46.0,24.85,SSW,209,13.0,-999.0,97,-99.99,,,-99.99,dwt +perl,2013-09-21 17:24:00,
2013-09-21 10:29:00,46.6,45.8,24.85,SW,217,10.0,-999.0,97,-99.99,,,-99.99,dwt +perl,2013-09-21 17:29:00,
2013-09-21 10:34:00,46.7,45.9,24.85,SW,231,12.0,-999.0,97,-99.99,,,-99.99,dwt +perl,2013-09-21 17:34:00,
2013-09-21 10:39:00,46.7,45.9,24.85,WSW,245,5.0,-999.0,97,-99.99,,,-99.99,dwt +perl,2013-09-21 17:39:00,
2013-09-21 10:44:00,46.9,46.1,24.85,SSW,210,13.0,-999.0,97,-99.99,,,-99.99,dwt +perl,2013-09-21 17:44:00,
2013-09-21 10:49:00,46.6,45.8,24.85,SSW,204,17.0,-999.0,97,-99.99,,,-99.99,dwt +perl,2013-09-21 17:49:00,
2013-09-21 10:54:00,47.1,46.3,24.85,SSW,211,10.0,-999.0,97,-99.99,,,-99.99,dwt +perl,2013-09-21 17:54:00,
2013-09-21 10:59:00,47.0,45.9,24.86,WSW,243,14.0,-999.0,96,-99.99,,,-99.99,dwt +perl,2013-09-21 17:59:00,
2013-09-21 11:04:00,47.3,46.2,24.86,WSW,245,10.0,-999.0,96,-99.99,,,-99.99,dwt +perl,2013-09-21 18:04:00,
2013-09-21 11:09:00,47.7,46.0,24.86,WSW,241,10.0,-999.0,94,-99.99,,,-99.99,dwt +perl,2013-09-21 18:09:00,
2013-09-21 11:14:00,47.3,44.2,24.86,SSW,211,9.0,-999.0,89,-99.99,,,-99.99,dwt +perl,2013-09-21 18:14:00,
2013-09-21 11:19:00,47.8,44.1,24.86,SSW,201,11.0,-999.0,87,-99.99,,,-99.99,dwt +perl,2013-09-21 18:19:00,
2013-09-21 11:29:00,48.2,44.5,24.86,SSW,202,12.0,-999.0,87,-99.99,,,-99.99,dwt +perl,2013-09-21 18:29:00,
2013-09-21 11:34:00,48.3,43.4,24.86,WNW,287,7.0,-999.0,83,-99.99,,,-99.99,dwt +perl,2013-09-21 18:34:00,
2013-09-21 11:39:00,48.2,43.9,24.86,WSW,242,10.0,-999.0,85,-99.99,,,-99.99,dwt +perl,2013-09-21 18:39:00,
2013-09-21 11:44:00,47.9,44.5,24.85,SW,223,11.0,-999.0,88,-99.99,,,-99.99,dwt +perl,2013-09-21 18:44:00,
2013-09-21 11:49:00,47.9,44.2,24.85,SW,228,10.0,-999.0,87,-99.99,,,-99.99,dwt +perl,2013-09-21 18:49:00,
2013-09-21 11:59:00,48.2,44.5,24.86,SSW,193,7.0,-999.0,87,-99.99,,,-99.99,dwt +perl,2013-09-21 18:59:00,
2013-09-21 12:04:00,48.7,44.4,24.86,South,174,7.0,-999.0,85,-99.99,,,-99.99,dwt +perl,2013-09-21 19:04:00,
2013-09-21 12:09:00,48.0,44.6,24.86,SW,230,8.0,-999.0,88,-99.99,,,-99.99,dwt +perl,2013-09-21 19:09:00,
2013-09-21 12:14:00,47.8,44.1,24.86,WSW,258,5.0,-999.0,87,-99.99,,,-99.99,dwt +perl,2013-09-21 19:14:00,
2013-09-21 12:19:00,47.6,44.2,24.86,SW,216,15.0,-999.0,88,-99.99,,,-99.99,dwt +perl,2013-09-21 19:19:00,
2013-09-21 12:29:00,47.0,43.6,24.86,WSW,243,12.0,-999.0,88,-99.99,,,-99.99,dwt +perl,2013-09-21 19:29:00,
2013-09-21 12:34:00,46.9,43.5,24.86,SW,215,8.0,-999.0,88,-99.99,,,-99.99,dwt +perl,2013-09-21 19:34:00,
2013-09-21 12:39:00,47.3,44.2,24.86,SSW,208,7.0,-999.0,89,-99.99,,,-99.99,dwt +perl,2013-09-21 19:39:00,
2013-09-21 12:44:00,47.0,43.9,24.86,SW,233,8.0,-999.0,89,-99.99,,,-99.99,dwt +perl,2013-09-21 19:44:00,
2013-09-21 12:49:00,47.0,44.2,24.86,SW,233,9.0,-999.0,90,-99.99,,,-99.99,dwt +perl,2013-09-21 19:49:00,
2013-09-21 12:54:00,46.8,44.0,24.86,SW,232,15.0,-999.0,90,-99.99,,,-99.99,dwt +perl,2013-09-21 19:54:00,
2013-09-21 12:59:00,46.7,43.9,24.86,SW,228,6.0,-999.0,90,-99.99,,,-99.99,dwt +perl,2013-09-21 19:59:00,
2013-09-21 13:04:00,46.9,44.7,24.86,SW,226,3.0,-999.0,92,-99.99,,,-99.99,dwt +perl,2013-09-21 20:04:00,
2013-09-21 13:09:00,47.1,44.6,24.85,SSW,205,14.0,-999.0,91,-99.99,,,-99.99,dwt +perl,2013-09-21 20:09:00,
2013-09-21 13:14:00,47.0,44.2,24.85,WSW,237,4.0,-999.0,90,-99.99,,,-99.99,dwt +perl,2013-09-21 20:14:00,
2013-09-21 13:19:00,47.3,44.8,24.85,SW,236,16.0,-999.0,91,-99.99,,,-99.99,dwt +perl,2013-09-21 20:19:00,
2013-09-21 13:29:00,47.1,44.6,24.85,SW,232,11.0,-999.0,91,-99.99,,,-99.99,dwt +perl,2013-09-21 20:29:00,
2013-09-21 13:34:00,47.2,44.7,24.85,WSW,246,16.0,-999.0,91,-99.99,,,-99.99,dwt +perl,2013-09-21 20:34:00,
2013-09-21 13:39:00,46.9,44.4,24.85,WSW,244,14.0,-999.0,91,-99.99,,,-99.99,dwt +perl,2013-09-21 20:39:00,
2013-09-21 13:44:00,46.8,44.0,24.85,SW,233,15.0,-999.0,90,-99.99,,,-99.99,dwt +perl,2013-09-21 20:44:00,
2013-09-21 13:49:00,47.0,44.5,24.85,SW,222,14.0,-999.0,91,-99.99,,,-99.99,dwt +perl,2013-09-21 20:49:00,
2013-09-21 13:59:00,46.9,44.7,24.85,West,278,6.0,-999.0,92,-99.99,,,-99.99,dwt +perl,2013-09-21 20:59:00,
2013-09-21 14:04:00,46.7,44.8,24.85,SW,234,6.0,-999.0,93,-99.99,,,-99.99,dwt +perl,2013-09-21 21:04:00,
2013-09-21 14:09:00,46.5,44.6,24.84,SW,234,13.0,-999.0,93,-99.99,,,-99.99,dwt +perl,2013-09-21 21:09:00,
2013-09-21 14:14:00,46.7,44.8,24.85,SW,225,13.0,-999.0,93,-99.99,,,-99.99,dwt +perl,2013-09-21 21:14:00,
2013-09-21 14:19:00,46.7,45.1,24.85,SW,228,12.0,-999.0,94,-99.99,,,-99.99,dwt +perl,2013-09-21 21:19:00,
2013-09-21 14:24:00,46.9,45.3,24.84,WSW,256,9.0,-999.0,94,-99.99,,,-99.99,dwt +perl,2013-09-21 21:24:00,
2013-09-21 14:29:00,46.8,44.9,24.85,WNW,285,7.0,-999.0,93,-99.99,,,-99.99,dwt +perl,2013-09-21 21:29:00,
2013-09-21 14:34:00,46.8,44.9,24.84,WSW,250,14.0,-999.0,93,-99.99,,,-99.99,dwt +perl,2013-09-21 21:34:00,
2013-09-21 14:39:00,46.7,44.8,24.84,WSW,238,7.0,-999.0,93,-99.99,,,-99.99,dwt +perl,2013-09-21 21:39:00,
2013-09-21 14:44:00,46.5,44.6,24.84,SW,232,11.0,-999.0,93,-99.99,,,-99.99,dwt +perl,2013-09-21 21:44:00,
2013-09-21 14:49:00,46.4,44.8,24.84,SSW,213,10.0,-999.0,94,-99.99,,,-99.99,dwt +perl,2013-09-21 21:49:00,
2013-09-21 14:54:00,46.4,44.5,24.84,SW,219,14.0,-999.0,93,-99.99,,,-99.99,dwt +perl,2013-09-21 21:54:00,
2013-09-21 14:59:00,46.6,44.7,24.84,WSW,238,7.0,-999.0,93,-99.99,,,-99.99,dwt +perl,2013-09-21 21:59:00,
2013-09-21 15:04:00,46.3,44.7,24.84,WSW,239,12.0,-999.0,94,-99.99,,,-99.99,dwt +perl,2013-09-21 22:04:00,
2013-09-21 15:09:00,46.3,44.7,24.84,SSW,208,7.0,-999.0,94,-99.99,,,-99.99,dwt +perl,2013-09-21 22:09:00,
2013-09-21 15:14:00,46.4,44.8,24.84,SW,218,9.0,-999.0,94,-99.99,,,-99.99,dwt +perl,2013-09-21 22:14:00,
2013-09-21 15:19:00,46.3,44.7,24.84,WSW,258,7.0,-999.0,94,-99.99,,,-99.99,dwt +perl,2013-09-21 22:19:00,
2013-09-21 15:24:00,46.1,44.5,24.83,West,262,11.0,-999.0,94,-99.99,,,-99.99,dwt +perl,2013-09-21 22:24:00,
2013-09-21 15:29:00,46.2,44.8,24.84,WNW,285,12.0,-999.0,95,-99.99,,,-99.99,dwt +perl,2013-09-21 22:29:00,
2013-09-21 15:34:00,46.1,44.7,24.84,SW,227,4.0,-999.0,95,-99.99,,,-99.99,dwt +perl,2013-09-21 22:34:00,
2013-09-21 15:39:00,46.0,44.6,24.84,WSW,249,8.0,-999.0,95,-99.99,,,-99.99,dwt +perl,2013-09-21 22:39:00,
2013-09-21 15:44:00,45.8,44.5,24.84,WNW,301,5.0,-999.0,95,-99.99,,,-99.99,dwt +perl,2013-09-21 22:44:00,
2013-09-21 15:49:00,45.7,44.6,24.83,WSW,237,15.0,-999.0,96,-99.99,,,-99.99,dwt +perl,2013-09-21 22:49:00,
2013-09-21 15:54:00,45.9,44.8,24.84,SW,226,7.0,-999.0,96,-99.99,,,-99.99,dwt +perl,2013-09-21 22:54:00,
2013-09-21 15:59:00,45.7,44.6,24.83,West,260,14.0,-999.0,96,-99.99,,,-99.99,dwt +perl,2013-09-21 22:59:00,
2013-09-21 16:04:00,45.6,44.5,24.84,West,271,10.0,-999.0,96,-99.99,,,-99.99,dwt +perl,2013-09-21 23:04:00,
2013-09-21 16:09:00,45.2,44.1,24.83,SW,219,18.0,-999.0,96,-99.99,,,-99.99,dwt +perl,2013-09-21 23:09:00,
2013-09-21 16:14:00,45.1,44.0,24.83,SW,236,18.0,-999.0,96,-99.99,,,-99.99,dwt +perl,2013-09-21 23:14:00,
2013-09-21 16:19:00,45.3,44.2,24.83,SW,224,18.0,-999.0,96,-99.99,,,-99.99,dwt +perl,2013-09-21 23:19:00,
2013-09-21 16:24:00,45.1,44.0,24.83,SW,235,20.0,-999.0,96,-99.99,,,-99.99,dwt +perl,2013-09-21 23:24:00,
2013-09-21 16:29:00,45.0,43.9,24.84,WSW,256,12.0,-999.0,96,-99.99,,,-99.99,dwt +perl,2013-09-21 23:29:00,
2013-09-21 16:34:00,45.2,44.4,24.83,SW,222,17.0,-999.0,97,-99.99,,,-99.99,dwt +perl,2013-09-21 23:34:00,
2013-09-21 16:39:00,45.0,44.2,24.84,SSW,204,14.0,-999.0,97,-99.99,,,-99.99,dwt +perl,2013-09-21 23:39:00,
2013-09-21 16:44:00,44.9,44.1,24.84,WSW,238,11.0,-999.0,97,-99.99,,,-99.99,dwt +perl,2013-09-21 23:44:00,
2013-09-21 16:49:00,44.8,44.0,24.84,SW,233,21.0,-999.0,97,-99.99,,,-99.99,dwt +perl,2013-09-21 23:49:00,
2013-09-21 16:54:00,44.5,43.7,24.84,SW,228,14.0,-999.0,97,-99.99,,,-99.99,dwt +perl,2013-09-21 23:54:00,
2013-09-21 16:59:00,45.1,44.3,24.84,WSW,247,17.0,-999.0,97,-99.99,,,-99.99,dwt +perl,2013-09-21 23:59:00,
2013-09-21 17:04:00,44.9,44.1,24.84,SW,234,15.0,-999.0,97,-99.99,,,-99.99,dwt +perl,2013-09-22 00:04:00,
2013-09-21 17:19:00,44.7,43.9,24.84,SW,234,17.0,-999.0,97,-99.99,,,-99.99,dwt +perl,2013-09-22 00:19:00,
2013-09-21 17:24:00,45.0,44.2,24.84,West,259,9.0,-999.0,97,-99.99,,,-99.99,dwt +perl,2013-09-22 00:24:00,
2013-09-21 17:29:00,44.7,43.9,24.84,SW,234,10.0,-999.0,97,-99.99,,,-99.99,dwt +perl,2013-09-22 00:29:00,
2013-09-21 17:44:00,44.4,43.6,24.84,WSW,241,19.0,-999.0,97,-99.99,,,-99.99,dwt +perl,2013-09-22 00:44:00,
2013-09-21 17:49:00,44.1,43.3,24.84,WSW,255,16.0,-999.0,97,-99.99,,,-99.99,dwt +perl,2013-09-22 00:49:00,
2013-09-21 17:54:00,44.1,43.3,24.84,WSW,247,17.0,-999.0,97,-99.99,,,-99.99,dwt +perl,2013-09-22 00:54:00,
2013-09-21 17:59:00,43.7,42.9,24.84,SW,224,14.0,-999.0,97,-99.99,,,-99.99,dwt +perl,2013-09-22 00:59:00,
2013-09-21 18:14:00,43.1,42.3,24.84,SW,227,15.0,-999.0,97,-99.99,,,-99.99,dwt +perl,2013-09-22 01:14:00,
2013-09-21 18:19:00,43.1,42.3,24.84,WSW,241,12.0,-999.0,97,-99.99,,,-99.99,dwt +perl,2013-09-22 01:19:00,
2013-09-21 18:24:00,43.1,42.3,24.85,WSW,252,13.0,-999.0,97,-99.99,,,-99.99,dwt +perl,2013-09-22 01:24:00,
2013-09-21 18:34:00,43.2,42.4,24.84,WSW,247,11.0,-999.0,97,-99.99,,,-99.99,dwt +perl,2013-09-22 01:34:00,
2013-09-21 18:39:00,42.9,42.1,24.85,WSW,250,20.0,-999.0,97,-99.99,,,-99.99,dwt +perl,2013-09-22 01:39:00,
2013-09-21 18:44:00,42.1,41.3,24.85,West,278,13.0,-999.0,97,-99.99,,,-99.99,dwt +perl,2013-09-22 01:44:00,
2013-09-21 18:49:00,42.6,41.8,24.85,NW,310,15.0,-999.0,97,-99.99,,,-99.99,dwt +perl,2013-09-22 01:49:00,
2013-09-21 18:54:00,42.0,41.2,24.85,WSW,243,16.0,-999.0,97,-99.99,,,-99.99,dwt +perl,2013-09-22 01:54:00,
2013-09-21 19:09:00,42.0,41.2,24.85,WSW,239,18.0,-999.0,97,-99.99,,,-99.99,dwt +perl,2013-09-22 02:09:00,
2013-09-21 19:14:00,41.9,41.1,24.85,WSW,251,8.0,-999.0,97,-99.99,,,-99.99,dwt +perl,2013-09-22 02:14:00,
2013-09-21 19:24:00,41.8,41.0,24.85,WSW,249,17.0,-999.0,97,-99.99,,,-99.99,dwt +perl,2013-09-22 02:24:00,
2013-09-21 19:29:00,41.8,41.0,24.85,West,270,15.0,-999.0,97,-99.99,,,-99.99,dwt +perl,2013-09-22 02:29:00,
2013-09-21 19:34:00,42.0,41.2,24.85,West,264,11.0,-999.0,97,-99.99,,,-99.99,dwt +perl,2013-09-22 02:34:00,
2013-09-21 19:39:00,42.2,41.4,24.85,WSW,250,15.0,-999.0,97,-99.99,,,-99.99,dwt +perl,2013-09-22 02:39:00,
2013-09-21 19:44:00,42.1,41.3,24.85,West,267,18.0,-999.0,97,-99.99,,,-99.99,dwt +perl,2013-09-22 02:44:00,
2013-09-21 19:49:00,41.7,40.9,24.85,West,271,11.0,-999.0,97,-99.99,,,-99.99,dwt +perl,2013-09-22 02:49:00,
2013-09-21 19:59:00,41.8,41.0,24.85,West,268,19.0,-999.0,97,-99.99,,,-99.99,dwt +perl,2013-09-22 02:59:00,
2013-09-21 20:04:00,41.2,40.4,24.85,West,264,12.0,-999.0,97,-99.99,,,-99.99,dwt +perl,2013-09-22 03:04:00,
2013-09-21 20:09:00,41.1,40.3,24.85,West,277,18.0,-999.0,97,-99.99,,,-99.99,dwt +perl,2013-09-22 03:09:00,
2013-09-21 20:14:00,41.0,40.2,24.86,SW,235,18.0,-999.0,97,-99.99,,,-99.99,dwt +perl,2013-09-22 03:14:00,
2013-09-21 20:19:00,41.0,40.5,24.86,West,272,18.0,-999.0,98,-99.99,,,-99.99,dwt +perl,2013-09-22 03:19:00,
2013-09-21 20:24:00,40.8,40.3,24.87,WSW,251,18.0,-999.0,98,-99.99,,,-99.99,dwt +perl,2013-09-22 03:24:00,
2013-09-21 20:34:00,40.5,39.7,24.87,SW,227,14.0,-999.0,97,-99.99,,,-99.99,dwt +perl,2013-09-22 03:34:00,
2013-09-21 20:39:00,40.4,39.6,24.87,WSW,239,16.0,-999.0,97,-99.99,,,-99.99,dwt +perl,2013-09-22 03:39:00,
2013-09-21 20:44:00,40.3,39.5,24.87,WNW,297,19.0,-999.0,97,-99.99,,,-99.99,dwt +perl,2013-09-22 03:44:00,
2013-09-21 20:49:00,40.3,39.5,24.87,SW,227,15.0,-999.0,97,-99.99,,,-99.99,dwt +perl,2013-09-22 03:49:00,
2013-09-21 20:54:00,40.4,39.6,24.87,SW,235,17.0,-999.0,97,-99.99,,,-99.99,dwt +perl,2013-09-22 03:54:00,
2013-09-21 20:59:00,40.4,39.9,24.87,WSW,258,19.0,-999.0,98,-99.99,,,-99.99,dwt +perl,2013-09-22 03:59:00,
2013-09-21 21:04:00,40.6,40.1,24.88,WNW,287,12.0,-999.0,98,-99.99,,,-99.99,dwt +perl,2013-09-22 04:04:00,
2013-09-21 21:09:00,40.7,39.9,24.89,WNW,285,13.0,-999.0,97,-99.99,,,-99.99,dwt +perl,2013-09-22 04:09:00,
2013-09-21 21:14:00,40.8,40.0,24.89,WSW,245,12.0,-999.0,97,-99.99,,,-99.99,dwt +perl,2013-09-22 04:14:00,
2013-09-21 21:19:00,40.6,39.8,24.89,WNW,282,13.0,-999.0,97,-99.99,,,-99.99,dwt +perl,2013-09-22 04:19:00,
2013-09-21 21:24:00,40.4,39.9,24.89,West,260,14.0,-999.0,98,-99.99,,,-99.99,dwt +perl,2013-09-22 04:24:00,
2013-09-21 21:29:00,40.4,39.9,24.89,West,267,14.0,-999.0,98,-99.99,,,-99.99,dwt +perl,2013-09-22 04:29:00,
2013-09-21 21:34:00,40.2,39.4,24.89,WSW,247,13.0,-999.0,97,-99.99,,,-99.99,dwt +perl,2013-09-22 04:34:00,
2013-09-21 21:39:00,40.3,39.5,24.89,WNW,294,9.0,-999.0,97,-99.99,,,-99.99,dwt +perl,2013-09-22 04:39:00,
2013-09-21 21:44:00,40.4,39.6,24.89,WNW,283,11.0,-999.0,97,-99.99,,,-99.99,dwt +perl,2013-09-22 04:44:00,
2013-09-21 21:49:00,40.2,39.4,24.89,West,266,10.0,-999.0,97,-99.99,,,-99.99,dwt +perl,2013-09-22 04:49:00,
2013-09-21 21:54:00,39.9,39.4,24.89,WNW,286,21.0,-999.0,98,-99.99,,,-99.99,dwt +perl,2013-09-22 04:54:00,
2013-09-21 21:59:00,39.5,39.0,24.89,West,272,9.0,-999.0,98,-99.99,,,-99.99,dwt +perl,2013-09-22 04:59:00,
2013-09-21 22:04:00,39.4,38.9,24.90,West,270,12.0,-999.0,98,-99.99,,,-99.99,dwt +perl,2013-09-22 05:04:00,
2013-09-21 22:09:00,39.4,38.9,24.89,West,271,17.0,-999.0,98,-99.99,,,-99.99,dwt +perl,2013-09-22 05:09:00,
2013-09-21 22:14:00,39.4,38.9,24.90,West,272,17.0,-999.0,98,-99.99,,,-99.99,dwt +perl,2013-09-22 05:14:00,
2013-09-21 22:19:00,39.6,39.1,24.90,NNW,327,14.0,-999.0,98,-99.99,,,-99.99,dwt +perl,2013-09-22 05:19:00,
2013-09-21 22:24:00,39.6,39.1,24.90,West,274,9.0,-999.0,98,-99.99,,,-99.99,dwt +perl,2013-09-22 05:24:00,
2013-09-21 22:29:00,39.6,39.1,24.90,WSW,244,13.0,-999.0,98,-99.99,,,-99.99,dwt +perl,2013-09-22 05:29:00,
2013-09-21 22:34:00,39.5,39.0,24.90,West,279,14.0,-999.0,98,-99.99,,,-99.99,dwt +perl,2013-09-22 05:34:00,
2013-09-21 22:39:00,39.5,39.0,24.90,West,264,12.0,-999.0,98,-99.99,,,-99.99,dwt +perl,2013-09-22 05:39:00,
2013-09-21 22:44:00,39.5,39.0,24.90,WNW,289,14.0,-999.0,98,-99.99,,,-99.99,dwt +perl,2013-09-22 05:44:00,
2013-09-21 22:49:00,39.5,39.0,24.90,WNW,295,17.0,-999.0,98,-99.99,,,-99.99,dwt +perl,2013-09-22 05:49:00,
2013-09-21 22:54:00,39.2,38.7,24.91,NW,310,15.0,-999.0,98,-99.99,,,-99.99,dwt +perl,2013-09-22 05:54:00,
2013-09-21 22:59:00,39.1,38.6,24.91,NW,311,14.0,-999.0,98,-99.99,,,-99.99,dwt +perl,2013-09-22 05:59:00,
2013-09-21 23:04:00,39.0,38.5,24.91,NNW,346,12.0,-999.0,98,-99.99,,,-99.99,dwt +perl,2013-09-22 06:04:00,
2013-09-21 23:09:00,39.0,38.5,24.91,NW,307,16.0,-999.0,98,-99.99,,,-99.99,dwt +perl,2013-09-22 06:09:00,
2013-09-21 23:14:00,39.0,38.5,24.91,WNW,301,12.0,-999.0,98,-99.99,,,-99.99,dwt +perl,2013-09-22 06:14:00,
2013-09-21 23:19:00,39.0,38.5,24.91,WNW,297,14.0,-999.0,98,-99.99,,,-99.99,dwt +perl,2013-09-22 06:19:00,
2013-09-21 23:24:00,39.1,38.3,24.91,West,277,20.0,-999.0,97,-99.99,,,-99.99,dwt +perl,2013-09-22 06:24:00,
2013-09-21 23:29:00,39.2,38.4,24.91,NW,312,15.0,-999.0,97,-99.99,,,-99.99,dwt +perl,2013-09-22 06:29:00,
2013-09-21 23:34:00,39.3,38.5,24.92,NNW,332,9.0,-999.0,97,-99.99,,,-99.99,dwt +perl,2013-09-22 06:34:00,
2013-09-21 23:39:00,39.3,38.5,24.91,West,271,9.0,-999.0,97,-99.99,,,-99.99,dwt +perl,2013-09-22 06:39:00,
2013-09-21 23:44:00,39.2,38.4,24.92,West,280,8.0,-999.0,97,-99.99,,,-99.99,dwt +perl,2013-09-22 06:44:00,
2013-09-21 23:49:00,39.4,38.6,24.92,WNW,292,15.0,-999.0,97,-99.99,,,-99.99,dwt +perl,2013-09-22 06:49:00,
2013-09-21 23:54:00,39.5,38.5,24.92,NW,324,15.0,-999.0,96,-99.99,,,-99.99,dwt +perl,2013-09-22 06:54:00,
2013-09-21 23:59:00,39.7,38.7,24.92,West,270,18.0,-999.0,96,-99.99,,,-99.99,dwt +perl,2013-09-22 06:59:00,